| time (UTC) | temp C | wind direction | speed KPH | gust KPH | rain 1hr cm | rain 24hr cm | rain mn cm | humidity % | barometer mb |
| 20260505004551 | 21 | 202 | 8.0 | 19.3 | 0.00 | 0.00 | 0.00 | 48 | 1009.9 |
| 20260505003056 | 21 | 179 | 6.4 | 16.1 | 0.00 | 0.00 | 0.00 | 49 | 1010.0 |
| 20260505001546 | 21 | 182 | 4.8 | 17.7 | 0.00 | 0.00 | 0.00 | 51 | 1010.1 |
| 20260505000048 | 21 | 146 | 6.4 | 16.1 | 0.00 | 0.00 | 0.00 | 49 | 1010.2 |
| 20260504234546 | 22 | 177 | 6.4 | 14.5 | 0.00 | 0.00 | 0.00 | 50 | 1010.2 |
| 20260504233045 | 22 | 217 | 4.8 | 11.3 | 0.00 | 0.00 | 0.00 | 50 | 1010.3 |
| 20260504231541 | 22 | 177 | 8.0 | 14.5 | 0.00 | 0.00 | 0.00 | 50 | 1010.4 |
| 20260504230039 | 22 | 204 | 4.8 | 11.3 | 0.00 | 0.00 | 0.00 | 49 | 1010.5 |
| 20260504224537 | 23 | 199 | 4.8 | 11.3 | 0.00 | 0.00 | 0.00 | 49 | 1010.6 |
| 20260504223050 | 23 | 301 | 1.6 | 8.0 | 0.00 | 0.00 | 0.00 | 53 | 1010.6 |
| 20260504221531 | 22 | 355 | 3.2 | 8.0 | 0.00 | 0.00 | 0.00 | 55 | 1010.7 |
| 20260504220032 | 22 | 336 | 3.2 | 6.4 | 0.00 | 0.00 | 0.00 | 54 | 1010.8 |
| 20260504214526 | 21 | 340 | 4.8 | 6.4 | 0.00 | 0.00 | 0.00 | 58 | 1011.0 |
| 20260504213028 | 20 | 345 | 4.8 | 6.4 | 0.00 | 0.00 | 0.00 | 58 | 1011.1 |
| 20260504211534 | 21 | 334 | 3.2 | 6.4 | 0.00 | 0.00 | 0.00 | 57 | 1011.2 |
| 20260504210022 | 21 | 328 | 3.2 | 6.4 | 0.00 | 0.00 | 0.00 | 59 | 1011.2 |
| 20260504204521 | 20 | 59 | 4.8 | 8.0 | 0.00 | 0.00 | 0.00 | 60 | 1011.4 |
| 20260504203020 | 20 | 351 | 3.2 | 8.0 | 0.00 | 0.00 | 0.00 | 60 | 1011.5 |
| 20260504201517 | 20 | 331 | 1.6 | 8.0 | 0.00 | 0.00 | 0.00 | 61 | 1011.7 |
| 20260504200018 | 19 | 325 | 3.2 | 8.0 | 0.00 | 0.00 | 0.00 | 63 | 1011.8 |
| 20260504194514 | 20 | 341 | 1.6 | 8.0 | 0.00 | 0.00 | 0.00 | 62 | 1011.8 |
| 20260504193012 | 19 | 341 | 1.6 | 8.0 | 0.00 | 0.00 | 0.00 | 63 | 1011.7 |
| 20260504191511 | 19 | 9 | 6.4 | 9.7 | 0.00 | 0.00 | 0.00 | 61 | 1011.9 |
| 20260504190009 | 18 | 323 | 3.2 | 6.4 | 0.00 | 0.00 | 0.00 | 64 | 1011.9 |
| 20260504184508 | 19 | 329 | 3.2 | 6.4 | 0.00 | 0.00 | 0.00 | 62 | 1011.9 |
| 20260504183009 | 17 | 70 | 3.2 | 8.0 | 0.00 | 0.00 | 0.00 | 66 | 1012.0 |
| 20260504181505 | 17 | 21 | 4.8 | 8.0 | 0.00 | 0.00 | 0.00 | 68 | 1012.0 |
| 20260504180002 | 17 | 46 | 3.2 | 6.4 | 0.00 | 0.00 | 0.00 | 70 | 1012.0 |
| 20260504174501 | 17 | 49 | 4.8 | 8.0 | 0.00 | 0.00 | 0.00 | 67 | 1012.1 |
| 20260504173100 | 17 | 47 | 4.8 | 8.0 | 0.00 | 0.00 | 0.00 | 66 | 1012.1 |
| 20260504171558 | 17 | 51 | 3.2 | 8.0 | 0.00 | 0.00 | 0.00 | 68 | 1012.2 |
| 20260504081502 | 16 | 135 | 1.6 | 4.8 | 0.00 | 0.00 | 0.00 | 57 | 1011.0 |
| 20260504044549 | 18 | 40 | 4.8 | 8.0 | 0.00 | 0.00 | 0.00 | 50 | 1011.0 |
| 20260504043053 | 18 | 57 | 4.8 | 11.3 | 0.00 | 0.00 | 0.00 | 50 | 1010.9 |
| 20260504041549 | 18 | 31 | 3.2 | 9.7 | 0.00 | 0.00 | 0.00 | 50 | 1010.9 |
| 20260504040107 | 18 | 55 | 4.8 | 8.0 | 0.00 | 0.00 | 0.00 | 50 | 1010.9 |
| 20260504034548 | 20 | 348 | 3.2 | 8.0 | 0.00 | 0.00 | 0.00 | 47 | 1010.8 |
| 20260504033050 | 19 | 51 | 3.2 | 9.7 | 0.00 | 0.00 | 0.00 | 46 | 1010.7 |
| 20260504031555 | 18 | 78 | 0.0 | 4.8 | 0.00 | 0.00 | 0.00 | 51 | 1010.6 |
| 20260504030045 | 18 | 40 | 0.0 | 4.8 | 0.00 | 0.00 | 0.00 | 53 | 1010.7 |
| 20260504024545 | 18 | 26 | 3.2 | 9.7 | 0.00 | 0.00 | 0.00 | 53 | 1010.7 |
| 20260504023044 | 18 | 360 | 6.4 | 12.9 | 0.00 | 0.00 | 0.00 | 53 | 1010.7 |
| 20260504021543 | 17 | 55 | 4.8 | 9.7 | 0.00 | 0.00 | 0.00 | 57 | 1010.9 |
| 20260504020043 | 18 | 56 | 3.2 | 9.7 | 0.00 | 0.00 | 0.00 | 57 | 1011.1 |
| 20260504014542 | 18 | 30 | 6.4 | 16.1 | 0.00 | 0.00 | 0.00 | 54 | 1011.1 |
| 20260504013042 | 18 | 63 | 6.4 | 16.1 | 0.00 | 0.00 | 0.00 | 57 | 1011.3 |
| 20260504011540 | 18 | 22 | 6.4 | 19.3 | 0.00 | 0.00 | 0.00 | 57 | 1011.5 |
| 20260504010036 | 18 | 360 | 8.0 | 16.1 | 0.00 | 0.00 | 0.00 | 57 | 1011.5 |